Terminal Aerodrome Forecast
Issued by NWS

Home | Current Version | Previous Version | Graphics & Text | Print | Product List | Glossary On
Versions: 1 2 3 4 5 6 7 8 9 10 11 12 13 14 15 16 17 18 19 20 21 22 23 24 25 26 27 28 29 30 31 32 33 34 35 36 37 38 39 40 41 42 43 44 45 46 47 48 49 50
000
FTUS43 KLOT 192203 AAB
TAFGYY
TAF AMD
KGYY 192203Z 1922/2018 07010KT 3SM -RA BR OVC015
     FM192300 06010KT 2SM -SHRA BR OVC008
     FM200600 24008KT 3SM BR VCSH BKN006 OVC015
     FM201200 25014KT 6SM -SHRA BR BKN008 OVC015
     FM201500 25020G30KT 6SM -SHRA BR SCT008 OVC015=

USA.gov is the U.S. government's official web portal to all federal, state and local government web resources and services.